Flag for Germany Weather past 2 weeks in Magdeburg, Saxony-Anhalt, Germany

Now
35 °F

Scattered clouds.


Feels Like: 32 °F
Forecast: 31 / 45 °F
Wind: 3 mph from Southeast

Location: Magdeburg

Current Time: Feb 27, 2015 at 9:15:26 AM

Latest Report: Feb 27, 2015 at 9:00 AM


Visibility: 14 mi

Pressure: 29.88 "Hg

Humidity: 73%

Dew point: 27 °F

Location of MagdeburgLocation

Historic Weather in Magdeburg — Graph

°F

Magdeburg temperature yesterday

Maximum temperature yesterday: 49 °F (at 2:00 PM)
Minimum temperature yesterday: 29 °F (at 5:00 AM)
Average temperature yesterday: 38 °F

Past Weeks' High & Low Weather Summary

 TemperatureHumidityPressure
High49 °F (Feb 20, 4:00 PM)100% (Feb 12, 9:00 AM)30.76 "Hg (Feb 12, 9:00 AM)
Low25 °F (Feb 17, 8:00 AM)49% (Feb 26, 5:00 PM)29.38 "Hg (Feb 21, 11:00 AM)
Average36 °F82%30.02 "Hg
* Reported Feb 12 8:00 AM — Feb 27 8:00 AM, Magdeburg, Weather by CustomWeather, © 2015

Note: Actual official high and low records may vary slightly from our data, if they occured in-between our weather recording intervals... More about our weather records

Advertising

Magdeburg weather history for previous 24 hours

 ConditionsComfort  
Time TempWeatherWind HumidityBarometerVisibility
8:00 AM
Fri, Feb 27
31 °FPassing clouds.3 mph80%29.87 "Hg16 mi
7:00 AM30 °FPassing clouds.2 mph83%29.87 "Hg16 mi
6:00 AM30 °FPassing clouds.3 mph83%29.86 "Hg10 mi
5:00 AM31 °FPassing clouds.2 mph83%29.87 "Hg9 mi
4:00 AM32 °FPassing clouds.2 mph80%29.88 "Hg11 mi
3:00 AM33 °FPassing clouds.2 mph78%29.90 "Hg11 mi
2:00 AM33 °FPassing clouds.2 mph76%29.92 "Hg11 mi
1:00 AM34 °FPassing clouds.2 mph76%29.93 "Hg9 mi
12:00 AM35 °FPassing clouds.2 mph74%29.95 "Hg11 mi
11:00 PM
Thu, Feb 26
36 °FPassing clouds.3 mph74%29.96 "Hg12 mi
9:00 PM38 °FClear.3 mph66%30.00 "Hg16 mi
8:00 PM39 °FClear.3 mph65%30.02 "Hg19 mi
7:00 PM42 °FClear.3 mph58%30.03 "Hg19 mi
6:00 PM44 °FClear.3 mph58%30.04 "Hg19 mi
5:00 PM48 °FSunny.3 mph49%30.05 "Hg25 mi
3:00 PM49 °FSunny.6 mph50%30.09 "Hg19 mi
2:00 PM49 °FSunny.6 mph53%30.11 "Hg19 mi
1:00 PM47 °FSunny.5 mph61%30.14 "Hg19 mi
12:00 PM44 °FSunny.3 mph69%30.17 "Hg16 mi
11:00 AM40 °FSunny.3 mph73%30.18 "Hg16 mi
10:00 AM37 °FPassing clouds.2 mph75%30.19 "Hg10 mi
9:00 AM33 °FPassing clouds.2 mph80%30.20 "Hg10 mi
Weather by CustomWeather, © 2015

See weather overviewHow to use our weather pages